Simultaneous Nadir Overpasses (SNOs) Predictions

Prediction of SNOs between GOES-17 and AQUA Satellite Orbit:

Table of predicted SNOs for the next 14.0 days since TLE Epoch: 6/16/2022
Index Date Time (GOES-17) GOES-17 Lat,Lon AQUA Lat,Lon Distance(km) Time Diff (sec)
1 06/17/2022 10:42:46 0.01,-137.19 -0.16,-136.39 91.54 80
2 06/17/2022 23:06:44 -0.02,-137.18 -0.96,-141.55 496.44 80
3 06/19/2022 10:30:12 0.01,-137.18 -0.79,-133.33 438.18 80
4 06/19/2022 22:54:10 -0.02,-137.18 -0.32,-138.49 149.78 80
5 06/21/2022 22:38:56 -0.02,-137.17 0.33,-135.43 196.95 80
6 06/22/2022 11:02:46 0.02,-137.17 0.74,-140.57 385.87 80
7 06/24/2022 10:50:12 0.01,-137.16 0.06,-137.51 39.84 80
8 06/26/2022 10:34:57 0.00,-137.14 -0.58,-134.45 305.80 80
9 06/26/2022 22:58:54 -0.01,-137.12 -0.51,-139.61 282.75 80
10 06/28/2022 22:46:20 0.00,-137.09 0.15,-136.55 62.15 80
